Home   Weather   Simi Valley   Past weeks

Flag for USA Past Weather in Simi Valley, California, USA — Yesterday and Last 2 Weeks

Now
53 °F

Fog.


Feels Like: 51 °F
Forecast: 51 / 55 °F
Wind: 7 mph from Southeast

Location: Van Nuys Airport

Current Time: Feb 20, 2017 at 12:23:12 pm

Latest Report: Feb 20, 2017 at 10:51 am


Visibility: 3 mi

Pressure: 30.26 "Hg

Humidity: 100%

Dew Point: 53 °F

Location of Simi ValleyLocation

Past Weather in Simi Valley — Graph

°F

Simi Valley Temperature Yesterday

Maximum temperature yesterday: 58 °F (at 12:51 pm)
Minimum temperature yesterday: 48 °F (at 12:51 am)
Average temperature yesterday: 53 °F

High & Low Weather Summary for the Past Weeks

 TemperatureHumidityPressure
High79 °F (Feb 9, 1:51 pm)100% (Feb 6, 1:38 am)30.26 "Hg (Feb 6, 1:38 am)
Low47 °F (Feb 15, 5:51 am)16% (Feb 15, 11:51 am)29.40 "Hg (Feb 17, 3:51 pm)
Average58 °F81%29.96 "Hg
* Reported Feb 5 10:51 am — Feb 20 10:51 am, Simi Valley, Weather by CustomWeather, © 2017

Note: Actual official high and low records may vary slightly from our data, if they occured in-between our weather recording intervals... More about our weather records

Advertising

Simi Valley Weather History for the Previous 24 Hours

Scroll right to see more
 ConditionsComfort  
Time TempWeatherWind HumidityBarometerVisibility
10:51 am
Mon, Feb 20
53 °FFog.7 mph100%30.26 "Hg3 mi
9:51 am52 °FFog.7 mph97%30.26 "Hg2 mi
9:36 am52 °FFog.8 mph100%30.26 "Hg2 mi
9:03 am52 °FFog.9 mph97%30.25 "Hg2 mi
7:51 am51 °FLight rain. Fog.6 mph100%30.22 "Hg1 mi
6:51 am51 °FLight rain. Fog.6 mph100%30.19 "Hg2 mi
5:51 am51 °FFog.7 mph96%30.18 "Hg6 mi
5:28 am51 °FLight rain. Fog.5 mph96%30.19 "Hg4 mi
5:09 am51 °FLight rain. Fog.5 mph96%30.18 "Hg2 mi
4:36 am50 °FLight rain. Fog.6 mph100%30.17 "Hg2 mi
4:08 am51 °FFog.3 mph100%30.17 "Hg3 mi
3:42 am51 °FFog.3 mph96%30.17 "Hg4 mi
3:30 am51 °FFog.6 mph96%30.16 "Hg5 mi
3:06 am51 °FMostly cloudy.6 mph96%30.16 "Hg10 mi
2:38 am51 °FLow clouds.6 mph96%30.16 "Hg9 mi
1:51 am51 °FFog.8 mph100%30.16 "Hg4 mi
1:23 am51 °FLight rain. Fog.6 mph100%30.17 "Hg4 mi
11:51 pm
Sun, Feb 19
52 °FLight rain. Low clouds.3 mph97%30.15 "Hg9 mi
11:33 pm52 °FLight rain. Mostly cloudy.5 mph100%30.16 "Hg10 mi
11:22 pm52 °FLight rain. Mostly cloudy.3 mph100%30.15 "Hg8 mi
9:51 pm53 °FLight rain. Mostly cloudy.3 mph93%30.13 "Hg10 mi
8:51 pm53 °FMostly cloudy.3 mph93%30.10 "Hg10 mi
7:51 pm53 °FLight rain. Overcast.5 mph89%30.07 "Hg10 mi
7:03 pm54 °FLight rain. Mostly cloudy.5 mph86%30.06 "Hg10 mi
6:51 pm54 °FOvercast.5 mph86%30.05 "Hg10 mi
6:21 pm54 °FLight rain. Overcast.5 mph86%30.04 "Hg10 mi
5:37 pm55 °FLight rain. Overcast.8 mph77%30.03 "Hg10 mi
4:51 pm55 °FOvercast.9 mph80%29.99 "Hg10 mi
3:51 pm56 °FBroken clouds.8 mph77%29.97 "Hg10 mi
2:51 pm57 °FPartly sunny.8 mph78%29.96 "Hg10 mi
1:51 pm57 °FMore clouds than sun.9 mph74%29.95 "Hg10 mi
12:51 pm58 °FCloudy.8 mph75%29.95 "Hg10 mi
Weather by CustomWeather, © 2017

See weather overviewHow to use our weather pages